VA2IEI-13 Weather Reports


time (UTC)temp
C
wind
direction
speed
KPH
gust
KPH
rain 1hr
cm
rain 24hr
cm
rain mn
cm
humidity
%
barometer
mb
20260508024016 5 293 6.4 14.5 0.00 0.30 0.30 88 1008.5
20260508023115 5 293 8.0 16.1 0.00 0.30 0.30 88 1008.6
20260508022109 6 293 8.0 19.3 0.00 0.30 0.30 88 1008.5
20260508021103 6 293 8.0 20.9 0.00 0.30 0.30 88 1008.7
20260508020056 6 293 6.4 14.5 0.00 0.30 0.30 88 1008.7
20260508015053 5 293 6.4 11.3 0.00 0.30 0.30 88 1008.7
20260508014049 5 270 4.8 11.3 0.00 0.30 0.30 89 1008.6
20260508013044 5 293 4.8 11.3 0.00 0.30 0.30 88 1008.7
20260508012040 5 293 6.4 16.1 0.00 0.30 0.30 88 1008.6
20260508011035 6 293 8.0 14.5 0.00 0.30 0.30 87 1008.5
20260508010030 6 293 8.0 20.9 0.00 0.30 0.30 86 1008.4
20260508005023 6 270 6.4 14.5 0.00 0.30 0.30 87 1008.4
20260508004017 6 270 8.0 19.3 0.00 0.30 0.30 86 1008.3
20260508003114 6 270 8.0 20.9 0.00 0.30 0.30 86 1008.2
20260508002110 6 270 9.7 24.1 0.00 0.30 0.30 84 1008.0
20260508001103 6 270 9.7 19.3 0.00 0.30 0.30 83 1007.9
20260508000058 6 270 8.0 17.7 0.00 0.30 0.30 83 1007.7
20260507235050 7 270 8.0 17.7 0.00 0.30 0.30 82 1007.8
20260507234048 7 293 8.0 20.9 0.00 0.30 0.30 80 1007.7
20260507233040 8 293 6.4 16.1 0.00 0.30 0.30 79 1007.5
20260507232054 8 293 8.0 17.7 0.00 0.30 0.30 79 1007.5
20260507231026 8 293 8.0 19.3 0.00 0.30 0.30 78 1007.4
20260507230022 8 293 8.0 19.3 0.00 0.30 0.30 79 1007.2
20260507225038 7 293 9.7 19.3 0.00 0.30 0.30 80 1007.2
20260507224118 7 270 9.7 20.9 0.00 0.30 0.30 80 1007.1
20260507223117 7 293 8.0 16.1 0.00 0.30 0.30 79 1007.0
20260507222108 7 270 8.0 20.9 0.00 0.30 0.30 79 1006.9
20260507221056 8 293 8.0 22.5 0.00 0.30 0.30 79 1006.9
20260507220050 8 293 12.9 27.4 0.00 0.30 0.30 78 1006.9
20260507215043 8 270 8.0 22.5 0.00 0.30 0.30 77 1006.9
20260507214038 8 293 9.7 20.9 0.00 0.33 0.30 77 1006.9
20260507213032 8 293 9.7 19.3 0.00 0.33 0.30 76 1006.7
20260507212030 8 293 9.7 24.1 0.00 0.33 0.30 75 1006.6
20260507211026 9 293 9.7 22.5 0.00 0.33 0.30 75 1006.4
20260507210022 9 270 6.4 19.3 0.00 0.33 0.30 75 1006.3
20260507205017 8 270 8.0 20.9 0.00 0.33 0.30 78 1006.2
20260507204120 8 248 6.4 17.7 0.00 0.36 0.30 77 1006.1
20260507203114 8 270 9.7 19.3 0.00 0.36 0.30 77 1006.2
20260507202108 8 270 6.4 14.5 0.00 0.36 0.30 79 1006.2
20260507201103 7 293 8.0 19.3 0.00 0.36 0.30 80 1006.2
20260507200100 7 293 9.7 22.5 0.00 0.36 0.30 79 1006.3
20260507195055 7 293 9.7 22.5 0.00 0.36 0.30 78 1006.3
20260507194052 8 293 9.7 20.9 0.00 0.36 0.30 77 1006.3
20260507193047 8 293 11.3 24.1 0.00 0.36 0.30 76 1006.3
20260507192044 8 293 9.7 29.0 0.00 0.36 0.30 76 1006.2
20260507191040 9 293 11.3 27.4 0.00 0.36 0.30 76 1006.1
20260507190035 10 293 3.2 12.9 0.00 0.36 0.30 76 1005.9
20260507185029 10 225 1.6 6.4 0.00 0.38 0.30 78 1006.0
20260507184034 10 270 1.6 4.8 0.00 0.38 0.30 77 1006.0
20260507183029 9 270 1.6 8.0 0.00 0.38 0.30 78 1006.1
20260507182045 9 248 3.2 9.7 0.03 0.41 0.30 79 1006.2
20260507181022 9 270 3.2 9.7 0.03 0.43 0.30 79 1006.3
20260507180016 9 270 3.2 9.7 0.03 0.43 0.30 84 1006.3
20260507175138 8 270 6.4 12.9 0.03 0.46 0.30 84 1006.5
20260507174102 8 248 4.8 11.3 0.03 0.48 0.30 89 1006.7
20260507173116 7 270 4.8 14.5 0.03 0.53 0.30 89 1006.7
20260507172049 7 270 6.4 12.9 0.00 0.53 0.28 89 1006.8
20260507171110 7 248 3.2 11.3 0.08 0.56 0.28 90 1006.7
20260507170025 7 248 4.8 9.7 0.13 0.58 0.28 91 1006.8
20260507165021 7 270 6.4 12.9 0.18 0.61 0.28 91 1007.0
20260507164036 7 248 4.8 9.7 0.20 0.64 0.28 92 1007.0
20260507163118 7 270 3.2 9.7 0.23 0.66 0.28 92 1007.1
20260507162113 7 248 1.6 4.8 0.25 0.66 0.28 92 1007.1
20260507161107 7 0.0 4.8 0.18 0.61 0.20 92 1007.2
20260507160103 7 293 1.6 6.4 0.15 0.58 0.15 91 1007.2
20260507155059 7 270 1.6 4.8 0.10 0.56 0.10 91 1007.4
20260507154103 7 293 3.2 9.7 0.08 0.58 0.08 91 1007.3
20260507153051 7 293 3.2 8.0 0.05 0.58 0.05 91 1007.4
20260507152047 7 293 3.2 6.4 0.03 0.61 0.03 90 1007.6
20260507151043 7 293 3.2 9.7 0.03 0.66 0.03 90 1007.7
20260507150039 7 315 1.6 4.8 0.00 0.66 0.00 90 1007.8
20260507145035 7 293 1.6 6.4 0.00 0.71 0.00 90 1007.8
20260507144031 7 293 4.8 14.5 0.00 0.74 0.00 90 1007.9
20260507143025 6 293 4.8 11.3 0.00 0.79 0.00 90 1007.8
20260507142023 7 293 4.8 9.7 0.00 0.81 0.00 89 1007.9
20260507141021 7 270 8.0 17.7 0.00 0.84 0.00 89 1008.1
20260507140117 7 270 6.4 11.3 0.00 0.86 0.00 89 1007.8
20260507135112 7 248 4.8 9.7 0.00 0.89 0.00 90 1007.8
20260507134107 6 270 4.8 12.9 0.00 0.89 0.00 90 1007.8
20260507133103 6 270 6.4 11.3 0.00 0.91 0.00 90 1007.9
20260507132059 6 270 4.8 9.7 0.00 0.94 0.00 91 1007.9
20260507131055 6 248 3.2 8.0 0.00 0.97 0.00 91 1007.8
20260507130050 6 293 4.8 14.5 0.00 0.97 0.00 91 1008.0
20260507125107 6 270 3.2 9.7 0.00 0.99 0.00 91 1008.1
20260507124101 6 270 4.8 11.3 0.00 1.02 0.00 91 1008.1
20260507123043 6 270 4.8 11.3 0.00 1.04 0.00 91 1008.0
20260507122017 6 270 4.8 14.5 0.00 1.07 0.00 91 1008.2
20260507121113 6 248 4.8 9.7 0.00 1.12 0.00 91 1008.0
20260507120106 6 248 4.8 12.9 0.00 1.14 0.00 91 1008.0
20260507115105 6 248 4.8 16.1 0.00 1.14 0.00 91 1008.0
20260507114059 6 248 4.8 9.7 0.00 1.17 0.00 92 1008.0
20260507113054 6 270 4.8 11.3 0.00 1.19 0.00 92 1008.0
20260507112050 6 270 4.8 11.3 0.00 1.19 0.00 92 1007.9
20260507111046 6 270 6.4 16.1 0.00 1.19 0.00 92 1008.1
20260507110038 6 270 4.8 9.7 0.00 1.19 0.00 92 1008.2
20260507105032 5 270 4.8 12.9 0.00 1.19 0.00 92 1008.2
20260507104029 5 270 4.8 14.5 0.00 1.19 0.00 92 1007.9
20260507103020 6 248 1.6 6.4 0.00 1.19 0.00 92 1008.0
20260507102017 6 270 3.2 8.0 0.00 1.19 0.00 92 1007.8
20260507101142 5 248 1.6 4.8 0.00 1.19 0.00 92 1007.5
20260507100058 5 248 1.6 6.4 0.00 1.19 0.00 92 1007.5
20260507095056 5 248 1.6 6.4 0.00 1.19 0.00 92 1007.7
20260507094050 5 248 3.2 8.0 0.00 1.19 0.00 92 1007.9
20260507093046 5 248 3.2 6.4 0.00 1.19 0.00 92 1007.8
20260507092042 5 270 3.2 4.8 0.00 1.19 0.00 92 1008.0
20260507091038 5 248 1.6 4.8 0.00 1.19 0.00 92 1008.1
20260507090032 5 270 1.6 4.8 0.00 1.19 0.00 92 1008.1
20260507085028 5 270 1.6 4.8 0.00 1.19 0.00 93 1008.1
20260507084024 5 293 1.6 4.8 0.00 1.19 0.00 93 1008.3
20260507083020 5 293 1.6 4.8 0.00 1.19 0.00 93 1008.3
20260507082034 5 293 1.6 6.4 0.00 1.19 0.00 93 1008.3
20260507081016 5 0.0 3.2 0.00 1.19 0.00 92 1008.2
20260507080012 5 0.0 1.6 0.00 1.19 0.00 92 1008.2
20260507075008 6 293 1.6 4.8 0.00 1.19 0.00 92 1008.1
20260507074004 6 270 1.6 4.8 0.00 1.19 0.00 93 1008.2
20260507073021 6 270 1.6 4.8 0.00 1.19 0.00 93 1008.3
20260507072016 6 270 1.6 4.8 0.00 1.19 0.00 93 1008.3
20260507071115 6 0.0 3.2 0.00 1.19 0.00 93 1008.4
20260507070131 5 270 1.6 4.8 0.00 1.19 0.00 93 1008.5
20260507065125 6 270 1.6 4.8 0.00 1.19 0.00 93 1008.5
20260507064059 5 270 1.6 6.4 0.00 1.19 0.00 93 1008.6
20260507063055 5 270 1.6 6.4 0.00 1.19 0.00 93 1008.5
20260507062048 5 293 1.6 8.0 0.00 1.19 0.00 92 1008.7
20260507061047 5 270 3.2 8.0 0.00 1.19 0.00 92 1008.9
20260507060043 5 270 3.2 8.0 0.00 1.19 0.00 92 1008.9
20260507055041 5 270 3.2 9.7 0.00 1.19 0.00 92 1008.9
20260507054055 5 270 3.2 8.0 0.00 1.19 0.00 91 1009.0
20260507053030 5 270 3.2 8.0 0.00 1.19 0.00 91 1009.1
20260507052027 5 270 3.2 8.0 0.00 1.19 0.00 91 1009.2
20260507051021 5 293 1.6 6.4 0.00 1.19 0.00 91 1009.3
20260507050017 5 270 1.6 4.8 0.00 1.19 0.00 91 1009.3
20260507045121 6 270 1.6 4.8 0.00 1.19 0.00 91 1009.3
20260507044116 6 293 3.2 8.0 0.00 1.19 0.00 90 1009.3
20260507043112 6 293 3.2 9.7 0.00 1.19 0.00 90 1009.2
20260507042108 6 293 3.2 11.3 0.00 1.19 0.00 90 1009.3
20260507041104 6 293 4.8 11.3 0.00 1.19 0.00 90 1009.2
20260507035114 6 293 4.8 11.3 0.00 1.19 1.19 90 1009.5
20260507034050 6 293 6.4 14.5 0.00 1.19 1.19 91 1009.6
20260507033041 6 270 6.4 14.5 0.00 1.19 1.19 91 1009.6
20260507032038 6 270 4.8 11.3 0.00 1.19 1.19 91 1009.8
20260507031032 6 293 6.4 14.5 0.00 1.19 1.19 91 1009.7
20260507030046 6 293 6.4 12.9 0.00 1.19 1.19 91 1009.9
20260507025015 6 293 4.8 9.7 0.00 1.19 1.19 91 1009.8